User: anonymous   Login
Location: Hepcat Sky Observatory
(29.9800°N, 95.6500°W)
Time: 08:08:17
(UTC-06:00)
Language:

SL-16 Debris - Orbit

View from above orbital plane
View from above orbital plane
View from above satellite
View from above satellite

Ground track
Ground track

The orbit data is extracted from the following two-line orbital elements,

1 26076U 99040E   15009.62016076  .00023328  00000-0  15076-2 0  4541
2 26076 028.4834 185.1737 4658368 122.3903 291.3039 06.26717536256074
Epoch (UTC): 09 January 2015 14:53:01
Eccentricity: 0.4658368
inclination: 28.4834°
perigee height: 260 km
apogee height: 11837 km
right ascension of ascending node: 185.1737°
argument of perigee: 122.3903°
revolutions per day: 6.26717536
mean anomaly at epoch: 291.3039°
orbit number at epoch: 25607

The dashed part of the orbit path shows where the satellite is in the earth's shadow,  

DLR